Flag for Uruguay Weather past 2 weeks in Minas, Uruguay

Now
61 °F

Fog.


Feels Like: 61 °F
Forecast: 53 / 65 °F
Wind: 12 mph from West

Location: Capitan Corbeta

Current Time: Sep 20, 2014 at 1:11:36 PM

Latest Report: Sep 20, 2014 at 10:00 AM


Visibility: 3 mi

Pressure: 29.92 "Hg

Humidity: 88%

Dew point: 57 °F

Location of MinasLocation

Historic Weather in Minas — Graph

°F

Minas temperature yesterday

Maximum temperature yesterday: 68 °F (at 1:00 PM)
Minimum temperature yesterday: 57 °F (at 2:00 AM)
Average temperature yesterday: 61 °F

Past Weeks' High & Low Weather Summary

 TemperatureHumidityPressure
High75 °F (Sep 9, 9:00 AM)100% (Sep 9, 3:00 PM)30.18 "Hg (Sep 9, 3:00 PM)
Low41 °F (Sep 12, 7:00 AM)34% (Sep 11, 4:00 PM)29.50 "Hg (Sep 9, 9:00 AM)
Average57 °F81%29.97 "Hg
* Reported Sep 5 10:00 AM — Sep 20 10:00 AM, Minas, Weather by CustomWeather, © 2014

Note: Actual official high and low records may vary slightly from our data, if they occured in-between our weather recording intervals... More about our weather records

Advertising

Minas weather history for previous 24 hours

 ConditionsComfort  
Time TempWeatherWind HumidityBarometerVisibility
10:00 AM
Sep 20
61 °FFog.12 mph88%29.92 "Hg3 mi
9:00 AM57 °FFog.7 mph94%29.89 "Hg1 mi
8:00 AM55 °FFog.6 mph100%29.89 "Hg3 mi
7:00 AM55 °FFog.3 mph94%29.89 "Hg5 mi
3:00 AM57 °FFog.7 mph94%29.89 "Hg3 mi
2:00 AM57 °FFog.6 mph94%29.89 "Hg3 mi
1:00 AM57 °FFog.3 mph94%29.89 "Hg3 mi
12:00 AM59 °FFog.5 mph88%29.89 "Hg3 mi
11:00 PM
Sep 19
59 °FFog.5 mph88%29.89 "Hg3 mi
10:00 PM59 °FLow clouds.8 mph94%29.89 "Hg3 mi
9:00 PM57 °FDrizzle. Low clouds.13 mph94%29.89 "Hg2 mi
8:00 PM59 °FDrizzle. Fog.7 mph94%29.89 "Hg2 mi
7:00 PM59 °FFog.6 mph94%29.86 "Hg1 mi
6:00 PM59 °FFog.9 mph94%29.83 "Hg1 mi
5:00 PM59 °FFog.8 mph88%29.83 "Hg1 mi
4:50 PM61 °FSnow. Fog.12 mph88%29.83 "Hg3 mi
4:00 PM64 °FPartly sunny.10 mph83%29.83 "HgN/A
3:00 PM68 °FPassing clouds.10 mph69%29.83 "HgN/A
2:00 PM68 °FScattered clouds.12 mph69%29.86 "HgN/A
1:00 PM68 °FScattered clouds.8 mph69%29.86 "HgN/A
Weather by CustomWeather, © 2014

See weather overviewHow to use our weather pages